Overview Statistics Trail Chart Weather Telemetry Raw packets
 

This is the latest recevied weather packets stored in our database for station/object LU4HH-15. If no packets are shown the sender has not sent any weather packets the latest 10 day(s).

<< 18 19 20 21 22 23 24 >>
Time Temp. Humidity Pressure Rain* Wind** Luminosity Snow
1788227572 15.56° C 61% 1029 hPa - - - -
1788226670 15.56° C 61% 1029.1 hPa - - - -
1788225769 15.56° C 61% 1029.1 hPa - - - -
1788224867 15.56° C 61% 1029 hPa - - - -
1788223981 16.11° C 60% 1028.9 hPa - - - -
1788223065 16.11° C 60% 1028.8 hPa - - - -
1788222163 16.11° C 59% 1028.5 hPa - - - -
1788221262 16.11° C 60% 1028.2 hPa - - - -
1788220361 16.11° C 60% 1027.9 hPa - - - -
1788219461 16.11° C 60% 1027.5 hPa - - - -
1788218559 16.11° C 59% 1027.5 hPa - - - -
1788217658 16.11° C 59% 1027.1 hPa - - - -
1788216757 16.11° C 59% 1027 hPa - - - -
1788215857 16.67° C 58% 1026.8 hPa - - - -
1788214955 16.67° C 60% 1026.6 hPa - - - -
1788214054 16.67° C 60% 1026.1 hPa - - - -
1788213153 16.67° C 60% 1026 hPa - - - -
1788212256 16.67° C 60% 1025.8 hPa - - - -
1788211351 16.67° C 60% 1025.5 hPa - - - -
1788210450 16.67° C 61% 1025.3 hPa - - - -
1788209549 16.67° C 61% 1025.1 hPa - - - -
1788208648 16.67° C 61% 1024.9 hPa - - - -
1788207747 18.33° C 57% 1024.6 hPa - - - -
1788205888 16.67° C 62% 1024.4 hPa - - - -
1788030473 17.22° C 53% 1021.7 hPa - - - -

* Rain since midnight (hover to see other rain measurements)
** Current wind speed in m/s (hover to see current wind gust speed)